This demonstration page uses our WeatherBlox Daily Observations layout. Learn more.

Left ArrowRight Arrow

53.62937, 11.41316

Hourly Observations for April 21, 2015

Temp ( °F °C ) Dew Point ( °F °C ) Humidity (%) Winds ( mph kmh ) Pressure ( in mb ) Visibility ( mi km ) Precip ( " mm )
6:20 am 06:20 Mostly Sunny 36 2 32 0 87 87 WSW 7 11 30.30 1026 7 11 N/A
6:50 am 06:50 Mostly Sunny 37 3 32 0 81 81 W 7 11 30.30 1026 7 11 N/A
7:20 am 07:20 Mostly Sunny 39 4 36 2 87 87 WSW 8 13 30.30 1026 7 11 N/A
7:50 am 07:50 Mostly Sunny 45 7 39 4 81 81 WSW 9 15 30.30 1026 7 11 N/A
8:20 am 08:20 Mostly Sunny 48 9 37 3 66 66 WSW 7 11 30.30 1026 7 11 N/A
8:50 am 08:50 Mostly Sunny 50 10 39 4 67 67 WSW 9 15 30.30 1026 7 11 N/A
9:20 am 09:20 Mostly Sunny 54 12 39 4 58 58 W 8 13 30.30 1026 7 11 N/A
9:50 am 09:50 Mostly Sunny 57 14 36 2 44 44 WNW 12 19 30.30 1026 7 11 N/A
10:20 am 10:20 Mostly Sunny 59 15 34 1 39 39 WNW 16 26 30.27 1025 7 11 N/A
10:50 am 10:50 Mostly Sunny 61 16 34 1 36 36 NW 12 19 30.27 1025 7 11 N/A
11:20 am 11:20 Mostly Sunny 64 18 34 1 32 32 NW 15 24 30.27 1025 7 11 N/A
11:50 am 11:50 Mostly Sunny 63 17 30 -1 30 30 NW 14 22 30.27 1025 7 11 N/A
12:20 pm 12:20 Mostly Sunny 64 18 30 -1 28 28 NW 14 22 30.27 1025 7 11 N/A
12:50 pm 12:50 Mostly Sunny 64 18 28 -2 26 26 NW 15 24 30.27 1025 7 11 N/A
1:20 pm 13:20 Mostly Sunny 64 18 28 -2 26 26 NW 17 28 30.27 1025 7 11 N/A
1:50 pm 13:50 Mostly Sunny 64 18 32 0 30 30 NW 18 30 30.27 1025 7 11 N/A
2:20 pm 14:20 Mostly Sunny 66 19 34 1 30 30 NW 16 26 30.27 1025 7 11 N/A
2:50 pm 14:50 Mostly Sunny 64 18 32 0 30 30 WNW 16 26 30.27 1025 7 11 N/A
3:20 pm 15:20 Mostly Sunny 66 19 34 1 30 30 NW 13 20 30.27 1025 7 11 N/A
3:50 pm 15:50 Mostly Sunny 66 19 37 3 35 35 NW 13 20 30.27 1025 7 11 N/A
4:20 pm 16:20 Mostly Sunny 66 19 36 2 32 32 NNW 13 20 30.27 1025 7 11 N/A
4:50 pm 16:50 Mostly Sunny 64 18 41 5 43 43 NNW 13 20 30.27 1025 7 11 N/A
5:20 pm 17:20 Mostly Sunny 64 18 41 5 43 43 N 12 19 30.27 1025 7 11 N/A
5:50 pm 17:50 Mostly Sunny 63 17 41 5 45 45 NNW 12 19 30.27 1025 7 11 N/A
6:20 pm 18:20 Mostly Sunny 61 16 41 5 48 48 NNW 10 17 30.24 1024 7 11 N/A
6:50 pm 18:50 Mostly Sunny 61 16 41 5 48 48 NNW 10 17 30.24 1024 7 11 N/A

Powered by AerisWeather